Simultaneous Nadir Overpasses (SNOs) Predictions

Prediction of SNOs between GOES-15 and METOP-B Satellite Orbit:

Table of predicted SNOs for the next 14.0 days since TLE Epoch: 10/12/2024
Index Date Time (GOES-15) GOES-15 Lat,Lon METOP-B Lat,Lon Distance(km) Time Diff (sec)
1 10/12/2024 17:21:53 0.29, 61.35 -0.18, 59.34 229.60 80
2 10/13/2024 16:58:31 0.28, 61.36 0.94, 64.34 339.61 80
3 10/15/2024 05:17:18 -0.29, 61.23 0.04, 59.78 166.06 80
4 10/16/2024 04:59:16 -0.29, 61.24 -1.09, 64.78 403.54 80
5 10/17/2024 17:18:10 0.30, 61.38 0.01, 60.20 135.04 80
6 10/18/2024 16:54:48 0.29, 61.39 1.15, 65.19 433.85 80
7 10/20/2024 05:13:34 -0.29, 61.28 -0.17, 60.63 72.85 80
8 10/21/2024 04:55:30 -0.28, 61.29 -1.27, 65.64 496.30 80
9 10/22/2024 17:14:24 0.28, 61.43 0.19, 61.06 42.35 80
10 10/25/2024 05:12:26 -0.28, 61.35 -0.31, 61.51 18.80 80
